This is the latest recevied weather packets stored in our database for station/object K4HOG. If no packets are shown the sender has not sent any weather packets the latest 10 day(s).
| Time | Temp. | Humidity | Pressure | Rain* | Wind** | Luminosity | Snow |
|---|---|---|---|---|---|---|---|
| 1777924818 | 28.89° C | 32% | 1014.4 hPa | 0 mm | - | 657 W/m² | - |
| 1777924514 | 28.89° C | 34% | 1014.5 hPa | 0 mm | - | 700 W/m² | - |
| 1777924211 | 28.89° C | 34% | 1014.6 hPa | 0 mm | - | 714 W/m² | - |
| 1777923907 | 29.44° C | 31% | 1014.7 hPa | 0 mm | - | 723 W/m² | - |
| 1777923602 | 28.89° C | 32% | 1014.9 hPa | 0 mm | - | 740 W/m² | - |
| 1777923300 | 29.44° C | 32% | 1015 hPa | 0 mm | - | 751 W/m² | - |
| 1777922999 | 29.44° C | 31% | 1015 hPa | 0 mm | - | 756 W/m² | - |
| 1777922696 | 29.44° C | 35% | 1014.9 hPa | 0 mm | - | 766 W/m² | - |
| 1777922395 | 28.89° C | 36% | 1015 hPa | 0 mm | - | 782 W/m² | - |
| 1777922092 | 28.89° C | 33% | 1015 hPa | 0 mm | - | 787 W/m² | - |
| 1777921787 | 28.89° C | 34% | 1015.2 hPa | 0 mm | - | 800 W/m² | - |
| 1777921483 | 28.33° C | 31% | 1015.3 hPa | 0 mm | - | 808 W/m² | - |
| 1777921180 | 28.89° C | 36% | 1015.5 hPa | 0 mm | - | 819 W/m² | - |
| 1777920877 | 28.33° C | 34% | 1015.5 hPa | 0 mm | - | 825 W/m² | - |
| 1777920573 | 28.33° C | 31% | 1015.6 hPa | 0 mm | - | 832 W/m² | - |
| 1777920269 | 28.89° C | 33% | 1015.7 hPa | 0 mm | - | 839 W/m² | - |
| 1777919965 | 28.89° C | 32% | 1015.8 hPa | 0 mm | - | 841 W/m² | - |
| 1777919663 | 28.33° C | 32% | 1015.7 hPa | 0 mm | - | 849 W/m² | - |
| 1777919361 | 28.33° C | 32% | 1015.9 hPa | 0 mm | - | 856 W/m² | - |
| 1777919057 | 28.33° C | 34% | 1015.9 hPa | 0 mm | - | 862 W/m² | - |
| 1777918754 | 28.33° C | 32% | 1016 hPa | 0 mm | - | 866 W/m² | - |
| 1777918451 | 28.89° C | 34% | 1016.1 hPa | 0 mm | - | 871 W/m² | - |
| 1777918150 | 28.89° C | 32% | 1016 hPa | 0 mm | - | 878 W/m² | - |
| 1777917848 | 28.33° C | 34% | 1016.1 hPa | 0 mm | - | 881 W/m² | - |
| 1777917546 | 28.33° C | 31% | 1016.1 hPa | 0 mm | - | 887 W/m² | - |
* Rain latest hour (hover to see other rain measurements)
** Current wind speed in m/s (hover to see current wind gust speed)